Time,TemperatureF,DewpointF,PressureIn,WindDirection,WindDirectionDegrees,WindSpeedMPH,WindSpeedGustMPH,Humidity,HourlyPrecipIn,Conditions,Clouds,dailyrainin,SoftwareType,DateUTC
2013-01-16 00:00:00,59.8,59.5,29.94,SSW,202,3.0,19.0,99,0.04,,---,1.91,VWS V14.00,2013-01-16 05:00:00,
2013-01-16 00:01:00,59.8,59.5,29.94,South,171,1.0,19.0,99,0.04,,---,1.91,VWS V14.00,2013-01-16 05:01:00,
2013-01-16 00:02:00,59.8,59.5,29.94,SSW,209,3.0,19.0,99,0.04,,---,1.91,VWS V14.00,2013-01-16 05:02:00,
2013-01-16 00:03:00,59.8,59.5,29.94,SSW,209,2.0,19.0,99,0.04,,---,1.91,VWS V14.00,2013-01-16 05:03:00,
2013-01-16 00:08:00,59.7,59.7,29.94,SW,218,5.0,11.0,100,0.01,,---,0.00,VWS V14.00,2013-01-16 05:08:00,
2013-01-16 00:13:00,59.7,59.1,29.94,South,191,3.0,13.0,98,0.01,,---,0.00,VWS V14.00,2013-01-16 05:13:00,
2013-01-16 00:18:00,59.8,59.2,29.93,SSE,165,4.0,13.0,98,0.01,,---,0.00,VWS V14.00,2013-01-16 05:18:00,
2013-01-16 00:23:00,59.8,59.2,29.93,SW,233,5.0,13.0,98,0.01,,---,0.00,VWS V14.00,2013-01-16 05:23:00,
2013-01-16 00:28:00,59.8,59.2,29.93,WSW,250,6.0,13.0,98,0.01,,---,0.00,VWS V14.00,2013-01-16 05:28:00,
2013-01-16 00:33:00,59.8,59.2,29.93,SSW,206,10.0,13.0,98,0.01,,---,0.00,VWS V14.00,2013-01-16 05:33:00,
2013-01-16 00:38:00,60.0,59.2,29.93,SSW,211,1.0,3.0,97,0.00,,---,0.00,VWS V14.00,2013-01-16 05:38:00,
2013-01-16 00:43:00,60.0,59.2,29.93,South,180,4.0,13.0,97,0.00,,---,0.00,VWS V14.00,2013-01-16 05:43:00,
2013-01-16 00:48:00,60.3,59.5,29.92,SSE,161,0.0,13.0,97,0.00,,---,0.00,VWS V14.00,2013-01-16 05:48:00,
2013-01-16 00:53:00,60.2,59.1,29.92,SSW,198,6.0,13.0,96,0.00,,---,0.00,VWS V14.00,2013-01-16 05:53:00,
2013-01-16 00:58:00,60.2,59.1,29.93,South,170,0.0,13.0,96,0.00,,---,0.00,VWS V14.00,2013-01-16 05:58:00,
2013-01-16 01:03:00,60.1,59.0,29.92,WSW,244,0.0,14.0,96,0.00,,---,0.00,VWS V14.00,2013-01-16 06:03:00,
2013-01-16 01:08:00,60.2,59.1,29.92,WSW,258,4.0,12.0,96,0.00,,---,0.00,VWS V14.00,2013-01-16 06:08:00,
2013-01-16 01:13:00,60.2,59.1,29.91,WNW,295,2.0,12.0,96,0.00,,---,0.00,VWS V14.00,2013-01-16 06:13:00,
2013-01-16 01:18:00,60.1,59.0,29.91,SSW,200,4.0,12.0,96,0.01,,---,0.01,VWS V14.00,2013-01-16 06:18:00,
2013-01-16 01:23:00,60.2,59.1,29.92,South,188,4.0,14.0,96,0.02,,---,0.02,VWS V14.00,2013-01-16 06:23:00,
2013-01-16 01:28:00,60.1,59.0,29.92,South,189,9.0,19.0,96,0.02,,---,0.02,VWS V14.00,2013-01-16 06:28:00,
2013-01-16 01:33:00,60.3,59.2,29.91,South,182,2.0,19.0,96,0.02,,---,0.02,VWS V14.00,2013-01-16 06:33:00,
2013-01-16 01:38:00,60.2,59.1,29.91,SE,146,4.0,6.0,96,0.02,,---,0.02,VWS V14.00,2013-01-16 06:38:00,
2013-01-16 01:43:00,60.2,59.1,29.91,West,269,1.0,9.0,96,0.02,,---,0.02,VWS V14.00,2013-01-16 06:43:00,
2013-01-16 01:48:00,60.2,59.1,29.91,WNW,288,0.0,9.0,96,0.02,,---,0.02,VWS V14.00,2013-01-16 06:48:00,
2013-01-16 01:53:00,60.2,59.1,29.91,SE,129,0.0,9.0,96,0.02,,---,0.02,VWS V14.00,2013-01-16 06:53:00,
2013-01-16 01:58:00,60.1,58.7,29.91,West,267,0.0,14.0,95,0.02,,---,0.02,VWS V14.00,2013-01-16 06:58:00,
2013-01-16 02:03:00,60.2,58.8,29.92,North,355,0.0,14.0,95,0.02,,---,0.02,VWS V14.00,2013-01-16 07:03:00,
2013-01-16 02:08:00,60.2,58.8,29.91,WSW,237,0.0,2.0,95,0.02,,---,0.02,VWS V14.00,2013-01-16 07:08:00,
2013-01-16 02:13:00,60.1,58.7,29.92,West,265,3.0,9.0,95,0.02,,---,0.02,VWS V14.00,2013-01-16 07:13:00,
2013-01-16 02:18:00,60.4,58.7,29.91,South,190,6.0,21.0,94,0.02,,---,0.02,VWS V14.00,2013-01-16 07:18:00,
2013-01-16 02:23:00,60.4,58.4,29.92,WSW,255,4.0,21.0,93,0.02,,---,0.02,VWS V14.00,2013-01-16 07:23:00,
2013-01-16 02:28:00,60.6,58.6,29.92,SSE,159,13.0,21.0,93,0.02,,---,0.02,VWS V14.00,2013-01-16 07:28:00,
2013-01-16 02:33:00,60.8,58.5,29.92,South,173,9.0,25.0,92,0.02,,---,0.02,VWS V14.00,2013-01-16 07:33:00,
2013-01-16 02:38:00,60.9,58.3,29.92,ENE,76,2.0,14.0,91,0.00,,---,0.02,VWS V14.00,2013-01-16 07:38:00,
2013-01-16 02:43:00,60.8,58.5,29.92,West,269,10.0,14.0,92,0.00,,---,0.02,VWS V14.00,2013-01-16 07:43:00,
2013-01-16 02:48:00,60.7,58.1,29.92,SE,128,4.0,15.0,91,0.00,,---,0.02,VWS V14.00,2013-01-16 07:48:00,
2013-01-16 02:53:00,60.7,58.1,29.92,SSW,195,3.0,18.0,91,0.00,,---,0.02,VWS V14.00,2013-01-16 07:53:00,
2013-01-16 02:58:00,60.7,58.1,29.92,South,182,0.0,18.0,91,0.00,,---,0.02,VWS V14.00,2013-01-16 07:58:00,
2013-01-16 03:03:00,60.7,58.1,29.92,SSW,200,3.0,18.0,91,0.00,,---,0.02,VWS V14.00,2013-01-16 08:03:00,
2013-01-16 03:08:00,60.7,58.1,29.92,West,275,7.0,18.0,91,0.00,,---,0.02,VWS V14.00,2013-01-16 08:08:00,
2013-01-16 03:13:00,60.7,58.1,29.91,SSW,203,6.0,18.0,91,0.00,,---,0.02,VWS V14.00,2013-01-16 08:13:00,
2013-01-16 03:18:00,60.7,58.1,29.91,South,187,2.0,18.0,91,0.00,,---,0.02,VWS V14.00,2013-01-16 08:18:00,
2013-01-16 03:23:00,60.7,58.1,29.90,South,188,5.0,18.0,91,0.00,,---,0.02,VWS V14.00,2013-01-16 08:23:00,
2013-01-16 03:28:00,60.8,58.2,29.90,SSW,209,1.0,18.0,91,0.00,,---,0.02,VWS V14.00,2013-01-16 08:28:00,
2013-01-16 03:33:00,60.8,58.2,29.90,SSW,208,0.0,18.0,91,0.00,,---,0.02,VWS V14.00,2013-01-16 08:33:00,
2013-01-16 03:38:00,60.8,58.2,29.90,West,269,1.0,5.0,91,0.00,,---,0.02,VWS V14.00,2013-01-16 08:38:00,
2013-01-16 03:43:00,60.8,58.2,29.89,SW,226,0.0,5.0,91,0.00,,---,0.02,VWS V14.00,2013-01-16 08:43:00,
2013-01-16 03:48:00,60.7,58.1,29.89,WNW,288,0.0,5.0,91,0.00,,---,0.02,VWS V14.00,2013-01-16 08:48:00,
2013-01-16 03:53:00,60.6,58.0,29.88,WNW,288,0.0,5.0,91,0.00,,---,0.02,VWS V14.00,2013-01-16 08:53:00,
2013-01-16 03:58:00,60.6,58.0,29.89,West,271,4.0,7.0,91,0.00,,---,0.02,VWS V14.00,2013-01-16 08:58:00,
2013-01-16 04:03:00,60.5,57.9,29.89,NNW,344,2.0,14.0,91,0.03,,---,0.05,VWS V14.00,2013-01-16 09:03:00,
2013-01-16 04:08:00,60.4,58.1,29.89,SSE,154,2.0,7.0,92,0.03,,---,0.05,VWS V14.00,2013-01-16 09:08:00,
2013-01-16 04:13:00,60.4,58.1,29.89,WSW,253,0.0,12.0,92,0.03,,---,0.05,VWS V14.00,2013-01-16 09:13:00,
2013-01-16 04:18:00,60.3,58.0,29.89,SSE,161,1.0,12.0,92,0.03,,---,0.05,VWS V14.00,2013-01-16 09:18:00,
2013-01-16 04:23:00,60.3,58.0,29.88,South,182,0.0,12.0,92,0.03,,---,0.05,VWS V14.00,2013-01-16 09:23:00,
2013-01-16 04:28:00,60.2,58.2,29.88,SSW,211,0.0,12.0,93,0.05,,---,0.07,VWS V14.00,2013-01-16 09:28:00,
2013-01-16 04:33:00,60.1,58.1,29.88,WSW,253,3.0,12.0,93,0.06,,---,0.08,VWS V14.00,2013-01-16 09:33:00,
2013-01-16 04:38:00,59.9,58.2,29.88,South,182,4.0,6.0,94,0.07,,---,0.09,VWS V14.00,2013-01-16 09:38:00,
2013-01-16 04:43:00,59.7,58.0,29.88,SW,216,1.0,12.0,94,0.08,,---,0.10,VWS V14.00,2013-01-16 09:43:00,
2013-01-16 04:48:00,59.6,58.2,29.88,WNW,282,0.0,12.0,95,0.09,,---,0.11,VWS V14.00,2013-01-16 09:48:00,
2013-01-16 04:53:00,59.5,58.1,29.87,SSW,206,0.0,12.0,95,0.10,,---,0.12,VWS V14.00,2013-01-16 09:53:00,
2013-01-16 04:58:00,59.5,58.1,29.87,SSW,195,0.0,12.0,95,0.11,,---,0.13,VWS V14.00,2013-01-16 09:58:00,
2013-01-16 05:03:00,59.4,58.0,29.88,SSW,207,0.0,12.0,95,0.12,,---,0.14,VWS V14.00,2013-01-16 10:03:00,
2013-01-16 05:08:00,59.3,57.9,29.87,SSW,207,0.0,3.0,95,0.09,,---,0.14,VWS V14.00,2013-01-16 10:08:00,
2013-01-16 05:13:00,59.3,58.2,29.87,SSW,212,0.0,3.0,96,0.09,,---,0.14,VWS V14.00,2013-01-16 10:13:00,
2013-01-16 05:18:00,59.1,58.0,29.87,WSW,240,0.0,3.0,96,0.12,,---,0.17,VWS V14.00,2013-01-16 10:18:00,
2013-01-16 05:23:00,59.1,58.0,29.88,SSE,150,0.0,3.0,96,0.13,,---,0.18,VWS V14.00,2013-01-16 10:23:00,
2013-01-16 05:28:00,59.0,57.9,29.88,SSE,150,0.0,3.0,96,0.16,,---,0.21,VWS V14.00,2013-01-16 10:28:00,
2013-01-16 05:33:00,59.0,57.9,29.87,SSE,150,0.0,3.0,96,0.18,,---,0.23,VWS V14.00,2013-01-16 10:33:00,
2013-01-16 05:38:00,59.0,57.9,29.88,SSE,150,0.0,0.0,96,0.14,,---,0.23,VWS V14.00,2013-01-16 10:38:00,
2013-01-16 05:43:00,59.0,57.9,29.88,SSE,150,0.0,1.0,96,0.15,,---,0.24,VWS V14.00,2013-01-16 10:43:00,
2013-01-16 05:48:00,59.0,57.9,29.88,SSE,150,0.0,1.0,96,0.17,,---,0.26,VWS V14.00,2013-01-16 10:48:00,
2013-01-16 05:53:00,58.7,57.8,29.88,ENE,67,0.0,3.0,97,0.17,,---,0.26,VWS V14.00,2013-01-16 10:53:00,
2013-01-16 05:58:00,58.6,57.8,29.88,SSE,167,4.0,4.0,97,0.17,,---,0.26,VWS V14.00,2013-01-16 10:58:00,
2013-01-16 06:03:00,58.4,57.6,29.88,South,186,1.0,5.0,97,0.17,,---,0.26,VWS V14.00,2013-01-16 11:03:00,
2013-01-16 06:08:00,58.4,57.6,29.89,West,261,0.0,1.0,97,0.12,,---,0.26,VWS V14.00,2013-01-16 11:08:00,
2013-01-16 06:13:00,58.5,57.7,29.89,SSE,167,0.0,4.0,97,0.13,,---,0.27,VWS V14.00,2013-01-16 11:13:00,
2013-01-16 06:18:00,58.5,57.7,29.90,South,180,0.0,4.0,97,0.13,,---,0.27,VWS V14.00,2013-01-16 11:18:00,
2013-01-16 06:23:00,58.5,57.7,29.89,SSW,192,0.0,4.0,97,0.14,,---,0.28,VWS V14.00,2013-01-16 11:23:00,
2013-01-16 06:28:00,58.5,57.7,29.89,SE,132,0.0,4.0,97,0.16,,---,0.30,VWS V14.00,2013-01-16 11:28:00,
2013-01-16 06:33:00,58.4,57.6,29.90,NW,315,1.0,11.0,97,0.17,,---,0.31,VWS V14.00,2013-01-16 11:33:00,
2013-01-16 06:38:00,58.4,57.6,29.89,East,85,0.0,1.0,97,0.08,,---,0.31,VWS V14.00,2013-01-16 11:38:00,
2013-01-16 06:43:00,58.4,57.6,29.90,NE,53,0.0,4.0,97,0.09,,---,0.32,VWS V14.00,2013-01-16 11:43:00,
2013-01-16 06:48:00,58.4,57.6,29.90,West,273,0.0,4.0,97,0.09,,---,0.32,VWS V14.00,2013-01-16 11:48:00,
2013-01-16 06:53:00,58.4,57.6,29.90,NNW,341,0.0,6.0,97,0.09,,---,0.32,VWS V14.00,2013-01-16 11:53:00,
2013-01-16 06:58:00,58.5,57.7,29.90,ENE,67,0.0,6.0,97,0.10,,---,0.33,VWS V14.00,2013-01-16 11:58:00,
2013-01-16 07:03:00,58.5,57.7,29.90,SSE,160,1.0,6.0,97,0.10,,---,0.33,VWS V14.00,2013-01-16 12:03:00,
2013-01-16 07:08:00,58.5,57.7,29.90,SSE,157,0.0,0.0,97,0.08,,---,0.34,VWS V14.00,2013-01-16 12:08:00,
2013-01-16 07:13:00,58.4,57.6,29.90,SSE,157,0.0,1.0,97,0.08,,---,0.34,VWS V14.00,2013-01-16 12:13:00,
2013-01-16 07:18:00,58.5,57.7,29.90,SSE,157,0.0,1.0,97,0.09,,---,0.35,VWS V14.00,2013-01-16 12:18:00,
2013-01-16 07:23:00,58.5,57.7,29.91,SSE,157,0.0,1.0,97,0.09,,---,0.35,VWS V14.00,2013-01-16 12:23:00,
2013-01-16 07:28:00,58.3,57.5,29.92,NW,304,4.0,10.0,97,0.10,,---,0.36,VWS V14.00,2013-01-16 12:28:00,
2013-01-16 07:33:00,57.2,56.1,29.92,WNW,283,13.0,13.0,96,0.10,,---,0.36,VWS V14.00,2013-01-16 12:33:00,
2013-01-16 07:38:00,56.5,55.4,29.92,NNW,334,0.0,5.0,96,0.05,,---,0.36,VWS V14.00,2013-01-16 12:38:00,
2013-01-16 07:43:00,56.5,55.4,29.93,NW,320,3.0,11.0,96,0.05,,---,0.36,VWS V14.00,2013-01-16 12:43:00,
2013-01-16 07:48:00,56.3,55.2,29.94,NW,306,15.0,16.0,96,0.06,,---,0.37,VWS V14.00,2013-01-16 12:48:00,
2013-01-16 07:53:00,55.6,54.2,29.94,WNW,285,3.0,16.0,95,0.07,,---,0.38,VWS V14.00,2013-01-16 12:53:00,
2013-01-16 07:58:00,55.1,53.7,29.94,NW,315,6.0,16.0,95,0.08,,---,0.39,VWS V14.00,2013-01-16 12:58:00,
2013-01-16 08:03:00,54.4,52.7,29.96,NNE,28,2.0,16.0,94,0.08,,---,0.39,VWS V14.00,2013-01-16 13:03:00,
2013-01-16 08:08:00,54.1,52.7,29.94,NW,322,5.0,10.0,95,0.06,,---,0.39,VWS V14.00,2013-01-16 13:08:00,
2013-01-16 08:13:00,54.0,52.6,29.94,NNW,348,1.0,11.0,95,0.06,,---,0.39,VWS V14.00,2013-01-16 13:13:00,
2013-01-16 08:18:00,53.9,52.5,29.95,WNW,299,0.0,11.0,95,0.06,,---,0.39,VWS V14.00,2013-01-16 13:18:00,
2013-01-16 08:23:00,53.8,52.4,29.95,WNW,283,5.0,11.0,95,0.06,,---,0.39,VWS V14.00,2013-01-16 13:23:00,
2013-01-16 08:28:00,53.4,52.0,29.96,NW,315,0.0,11.0,95,0.06,,---,0.39,VWS V14.00,2013-01-16 13:28:00,
2013-01-16 08:33:00,53.2,51.8,29.97,NW,315,0.0,11.0,95,0.06,,---,0.39,VWS V14.00,2013-01-16 13:33:00,
2013-01-16 08:38:00,53.1,51.7,29.98,NW,317,3.0,8.0,95,0.03,,---,0.39,VWS V14.00,2013-01-16 13:38:00,
2013-01-16 08:43:00,53.0,51.9,29.98,SSE,149,2.0,8.0,96,0.03,,---,0.39,VWS V14.00,2013-01-16 13:43:00,
2013-01-16 08:48:00,53.0,51.9,29.98,ESE,110,0.0,8.0,96,0.03,,---,0.39,VWS V14.00,2013-01-16 13:48:00,
2013-01-16 08:53:00,53.0,51.9,29.98,South,187,0.0,8.0,96,0.03,,---,0.39,VWS V14.00,2013-01-16 13:53:00,
2013-01-16 08:58:00,52.9,51.8,29.99,ESE,118,0.0,8.0,96,0.03,,---,0.39,VWS V14.00,2013-01-16 13:58:00,
2013-01-16 09:03:00,52.7,51.6,29.99,SSE,163,0.0,8.0,96,0.03,,---,0.39,VWS V14.00,2013-01-16 14:03:00,
2013-01-16 09:08:00,52.6,51.5,29.99,SSE,163,0.0,0.0,96,0.00,,---,0.39,VWS V14.00,2013-01-16 14:08:00,
2013-01-16 09:13:00,52.5,51.4,29.98,SSE,163,0.0,0.0,96,0.00,,---,0.39,VWS V14.00,2013-01-16 14:13:00,
2013-01-16 09:18:00,52.5,51.4,29.98,SSW,206,0.0,1.0,96,0.00,,---,0.39,VWS V14.00,2013-01-16 14:18:00,
2013-01-16 09:23:00,52.6,51.8,29.98,SSW,205,0.0,1.0,97,0.00,,---,0.39,VWS V14.00,2013-01-16 14:23:00,
2013-01-16 09:28:00,52.6,51.8,29.98,SSW,205,0.0,1.0,97,0.00,,---,0.39,VWS V14.00,2013-01-16 14:28:00,
2013-01-16 09:33:00,52.9,52.1,29.98,SSW,206,0.0,1.0,97,0.00,,---,0.39,VWS V14.00,2013-01-16 14:33:00,
2013-01-16 09:38:00,53.1,52.3,29.98,NW,312,0.0,1.0,97,0.00,,---,0.39,VWS V14.00,2013-01-16 14:38:00,
2013-01-16 09:43:00,53.3,52.5,29.98,NW,313,0.0,1.0,97,0.00,,---,0.39,VWS V14.00,2013-01-16 14:43:00,
2013-01-16 09:48:00,53.4,52.8,29.99,NW,313,0.0,1.0,98,0.00,,---,0.39,VWS V14.00,2013-01-16 14:48:00,
2013-01-16 09:53:00,53.5,53.0,29.98,NW,311,0.0,1.0,98,0.00,,---,0.39,VWS V14.00,2013-01-16 14:53:00,
2013-01-16 09:58:00,53.4,52.6,29.98,West,279,0.0,2.0,97,0.00,,---,0.39,VWS V14.00,2013-01-16 14:58:00,
2013-01-16 10:03:00,53.2,52.4,29.98,West,279,0.0,2.0,97,0.00,,---,0.39,VWS V14.00,2013-01-16 15:03:00,
2013-01-16 10:08:00,53.0,52.2,29.98,West,279,0.0,0.0,97,0.00,,---,0.39,VWS V14.00,2013-01-16 15:08:00,
2013-01-16 10:13:00,52.8,52.0,29.97,West,279,0.0,0.0,97,0.00,,---,0.39,VWS V14.00,2013-01-16 15:13:00,
2013-01-16 10:18:00,52.8,52.0,29.97,West,279,0.0,0.0,97,0.00,,---,0.39,VWS V14.00,2013-01-16 15:18:00,
2013-01-16 10:23:00,52.9,52.1,29.97,WNW,284,2.0,3.0,97,0.00,,---,0.39,VWS V14.00,2013-01-16 15:23:00,
2013-01-16 10:28:00,52.9,52.3,29.96,NNE,32,0.0,7.0,98,0.00,,---,0.39,VWS V14.00,2013-01-16 15:28:00,
2013-01-16 10:33:00,53.0,52.5,29.96,East,83,0.0,7.0,98,0.00,,---,0.39,VWS V14.00,2013-01-16 15:33:00,
2013-01-16 10:38:00,53.3,52.8,29.95,East,82,2.0,3.0,98,0.00,,---,0.39,VWS V14.00,2013-01-16 15:38:00,
2013-01-16 10:43:00,53.8,53.2,29.95,ENE,57,0.0,3.0,98,0.00,,---,0.39,VWS V14.00,2013-01-16 15:43:00,
2013-01-16 10:48:00,54.1,53.5,29.95,ENE,57,0.0,3.0,98,0.00,,---,0.39,VWS V14.00,2013-01-16 15:48:00,
2013-01-16 10:53:00,54.3,53.8,29.95,ENE,71,0.0,3.0,98,0.00,,---,0.39,VWS V14.00,2013-01-16 15:53:00,
2013-01-16 10:58:00,54.1,53.5,29.96,ENE,73,0.0,3.0,98,0.00,,---,0.39,VWS V14.00,2013-01-16 15:58:00,
2013-01-16 11:03:00,53.8,53.2,29.96,SE,138,0.0,3.0,98,0.00,,---,0.39,VWS V14.00,2013-01-16 16:03:00,
2013-01-16 11:08:00,53.5,53.0,29.95,SSE,159,0.0,1.0,98,0.00,,---,0.39,VWS V14.00,2013-01-16 16:08:00,
2013-01-16 11:13:00,53.4,52.8,29.97,South,169,0.0,3.0,98,0.00,,---,0.39,VWS V14.00,2013-01-16 16:13:00,
2013-01-16 11:18:00,53.5,53.0,29.96,South,169,0.0,3.0,98,0.00,,---,0.39,VWS V14.00,2013-01-16 16:18:00,
2013-01-16 11:23:00,53.7,53.2,29.96,South,188,0.0,3.0,98,0.00,,---,0.39,VWS V14.00,2013-01-16 16:23:00,
2013-01-16 11:28:00,53.8,53.2,29.96,South,188,0.0,3.0,98,0.00,,---,0.39,VWS V14.00,2013-01-16 16:28:00,
2013-01-16 11:33:00,53.8,53.2,29.96,South,188,0.0,3.0,98,0.00,,---,0.39,VWS V14.00,2013-01-16 16:33:00,
2013-01-16 11:38:00,53.9,53.3,29.96,South,188,0.0,1.0,98,0.00,,---,0.39,VWS V14.00,2013-01-16 16:38:00,
2013-01-16 11:43:00,53.9,53.3,29.95,South,188,0.0,1.0,98,0.00,,---,0.39,VWS V14.00,2013-01-16 16:43:00,
2013-01-16 11:48:00,53.9,53.3,29.95,South,188,0.0,1.0,98,0.00,,---,0.39,VWS V14.00,2013-01-16 16:48:00,
2013-01-16 11:53:00,53.9,53.3,29.94,South,188,0.0,1.0,98,0.00,,---,0.39,VWS V14.00,2013-01-16 16:53:00,
2013-01-16 11:58:00,54.2,53.7,29.94,South,188,0.0,1.0,98,0.00,,---,0.39,VWS V14.00,2013-01-16 16:58:00,
2013-01-16 12:03:00,54.3,53.8,29.95,South,188,0.0,1.0,98,0.00,,---,0.39,VWS V14.00,2013-01-16 17:03:00,
2013-01-16 12:08:00,54.5,54.0,29.95,South,188,0.0,0.0,98,0.00,,---,0.39,VWS V14.00,2013-01-16 17:08:00,
2013-01-16 12:13:00,54.6,54.0,29.94,South,187,0.0,0.0,98,0.00,,---,0.39,VWS V14.00,2013-01-16 17:13:00,
2013-01-16 12:18:00,54.8,54.2,29.94,South,187,0.0,0.0,98,0.00,,---,0.39,VWS V14.00,2013-01-16 17:18:00,
2013-01-16 12:23:00,54.9,54.3,29.94,South,188,0.0,0.0,98,0.00,,---,0.39,VWS V14.00,2013-01-16 17:23:00,
2013-01-16 12:28:00,54.9,54.3,29.94,South,188,0.0,0.0,98,0.00,,---,0.39,VWS V14.00,2013-01-16 17:28:00,
2013-01-16 12:33:00,54.9,54.3,29.94,South,188,0.0,0.0,98,0.00,,---,0.39,VWS V14.00,2013-01-16 17:33:00,
2013-01-16 12:38:00,54.9,54.3,29.95,South,188,0.0,0.0,98,0.00,,---,0.39,VWS V14.00,2013-01-16 17:38:00,
2013-01-16 12:43:00,54.7,54.2,29.94,ENE,63,4.0,4.0,98,0.00,,---,0.39,VWS V14.00,2013-01-16 17:43:00,
2013-01-16 12:48:00,54.5,54.0,29.94,East,88,0.0,5.0,98,0.00,,---,0.39,VWS V14.00,2013-01-16 17:48:00,
2013-01-16 12:53:00,54.4,53.8,29.94,East,88,0.0,5.0,98,0.00,,---,0.39,VWS V14.00,2013-01-16 17:53:00,
2013-01-16 12:58:00,54.4,53.8,29.94,East,90,0.0,5.0,98,0.00,,---,0.39,VWS V14.00,2013-01-16 17:58:00,
2013-01-16 13:03:00,54.4,53.8,29.93,East,90,0.0,5.0,98,0.00,,---,0.39,VWS V14.00,2013-01-16 18:03:00,
2013-01-16 13:08:00,54.4,53.8,29.94,East,90,0.0,0.0,98,0.00,,---,0.39,VWS V14.00,2013-01-16 18:08:00,
2013-01-16 13:13:00,54.4,53.8,29.94,East,90,0.0,0.0,98,0.00,,---,0.39,VWS V14.00,2013-01-16 18:13:00,
2013-01-16 13:18:00,54.4,53.8,29.94,East,90,0.0,0.0,98,0.00,,---,0.39,VWS V14.00,2013-01-16 18:18:00,
2013-01-16 13:23:00,54.4,53.8,29.94,East,90,0.0,0.0,98,0.00,,---,0.39,VWS V14.00,2013-01-16 18:23:00,
2013-01-16 13:28:00,54.4,53.8,29.94,East,90,0.0,0.0,98,0.00,,---,0.39,VWS V14.00,2013-01-16 18:28:00,
2013-01-16 13:33:00,54.5,54.0,29.94,East,90,0.0,0.0,98,0.00,,---,0.39,VWS V14.00,2013-01-16 18:33:00,
2013-01-16 13:38:00,54.6,54.0,29.93,East,90,0.0,0.0,98,0.00,,---,0.39,VWS V14.00,2013-01-16 18:38:00,
2013-01-16 13:43:00,54.6,54.0,29.93,East,90,0.0,0.0,98,0.00,,---,0.39,VWS V14.00,2013-01-16 18:43:00,
2013-01-16 13:48:00,54.7,54.2,29.93,SSW,192,0.0,3.0,98,0.00,,---,0.39,VWS V14.00,2013-01-16 18:48:00,
2013-01-16 13:53:00,54.8,54.2,29.93,SSW,192,0.0,3.0,98,0.00,,---,0.39,VWS V14.00,2013-01-16 18:53:00,
2013-01-16 13:58:00,54.5,54.0,29.94,SSW,198,0.0,5.0,98,0.00,,---,0.39,VWS V14.00,2013-01-16 18:58:00,
2013-01-16 14:03:00,54.0,53.2,29.94,South,176,3.0,5.0,97,0.00,,---,0.39,VWS V14.00,2013-01-16 19:03:00,
2013-01-16 14:08:00,53.7,52.9,29.94,South,182,5.0,5.0,97,0.00,,---,0.39,VWS V14.00,2013-01-16 19:08:00,
2013-01-16 14:13:00,53.6,52.2,29.94,SSW,209,1.0,8.0,95,0.00,,---,0.39,VWS V14.00,2013-01-16 19:13:00,
2013-01-16 14:18:00,53.6,51.6,29.94,South,170,2.0,8.0,93,0.01,,---,0.40,VWS V14.00,2013-01-16 19:18:00,
2013-01-16 14:23:00,53.7,51.4,29.94,SW,223,0.0,8.0,92,0.01,,---,0.40,VWS V14.00,2013-01-16 19:23:00,
2013-01-16 14:28:00,53.8,51.5,29.94,South,175,0.0,8.0,92,0.01,,---,0.40,VWS V14.00,2013-01-16 19:28:00,
2013-01-16 14:33:00,53.7,51.1,29.94,ESE,123,0.0,8.0,91,0.01,,---,0.40,VWS V14.00,2013-01-16 19:33:00,
2013-01-16 14:38:00,53.7,51.1,29.94,ESE,123,0.0,0.0,91,0.01,,---,0.40,VWS V14.00,2013-01-16 19:38:00,
2013-01-16 14:43:00,53.8,51.5,29.94,ESE,122,0.0,1.0,92,0.01,,---,0.40,VWS V14.00,2013-01-16 19:43:00,
2013-01-16 14:48:00,53.8,51.8,29.94,ESE,122,0.0,1.0,93,0.01,,---,0.40,VWS V14.00,2013-01-16 19:48:00,
2013-01-16 14:53:00,53.8,51.8,29.95,ESE,122,0.0,1.0,93,0.01,,---,0.40,VWS V14.00,2013-01-16 19:53:00,
2013-01-16 14:58:00,53.7,51.7,29.94,ESE,122,0.0,1.0,93,0.01,,---,0.40,VWS V14.00,2013-01-16 19:58:00,
2013-01-16 15:03:00,53.5,51.5,29.94,ESE,122,0.0,1.0,93,0.01,,---,0.40,VWS V14.00,2013-01-16 20:03:00,
2013-01-16 15:08:00,53.5,51.8,29.94,ESE,122,0.0,0.0,94,0.02,,---,0.41,VWS V14.00,2013-01-16 20:08:00,
2013-01-16 15:13:00,53.4,51.7,29.95,ESE,122,0.0,0.0,94,0.02,,---,0.41,VWS V14.00,2013-01-16 20:13:00,
2013-01-16 15:18:00,53.3,51.6,29.95,ESE,122,0.0,1.0,94,0.02,,---,0.41,VWS V14.00,2013-01-16 20:18:00,
2013-01-16 15:23:00,53.2,51.5,29.94,ESE,122,0.0,1.0,94,0.02,,---,0.41,VWS V14.00,2013-01-16 20:23:00,
2013-01-16 15:28:00,53.1,51.4,29.94,ESE,122,0.0,1.0,94,0.03,,---,0.42,VWS V14.00,2013-01-16 20:28:00,
2013-01-16 15:33:00,53.0,51.3,29.95,ESE,122,0.0,1.0,94,0.03,,---,0.42,VWS V14.00,2013-01-16 20:33:00,
2013-01-16 15:38:00,52.9,51.5,29.95,ESE,122,0.0,0.0,95,0.02,,---,0.42,VWS V14.00,2013-01-16 20:38:00,
2013-01-16 15:43:00,52.9,51.5,29.95,ESE,122,0.0,0.0,95,0.02,,---,0.42,VWS V14.00,2013-01-16 20:43:00,
2013-01-16 15:48:00,52.8,51.4,29.95,ESE,122,0.0,1.0,95,0.02,,---,0.42,VWS V14.00,2013-01-16 20:48:00,
2013-01-16 15:53:00,52.8,51.4,29.94,ESE,122,0.0,1.0,95,0.02,,---,0.42,VWS V14.00,2013-01-16 20:53:00,
2013-01-16 15:58:00,52.8,51.7,29.95,ESE,122,0.0,1.0,96,0.02,,---,0.42,VWS V14.00,2013-01-16 20:58:00,
2013-01-16 16:03:00,52.8,51.7,29.95,ESE,122,0.0,1.0,96,0.02,,---,0.42,VWS V14.00,2013-01-16 21:03:00,
2013-01-16 16:08:00,52.8,51.7,29.95,ESE,122,0.0,0.0,96,0.01,,---,0.42,VWS V14.00,2013-01-16 21:08:00,
2013-01-16 16:13:00,52.7,51.6,29.95,ESE,122,0.0,0.0,96,0.01,,---,0.42,VWS V14.00,2013-01-16 21:13:00,
2013-01-16 16:18:00,52.6,51.5,29.95,ESE,122,0.0,0.0,96,0.01,,---,0.42,VWS V14.00,2013-01-16 21:18:00,
2013-01-16 16:23:00,52.7,51.6,29.95,ESE,115,2.0,2.0,96,0.01,,---,0.42,VWS V14.00,2013-01-16 21:23:00,
2013-01-16 16:28:00,52.6,51.5,29.95,ENE,67,0.0,3.0,96,0.01,,---,0.42,VWS V14.00,2013-01-16 21:28:00,
2013-01-16 16:33:00,52.6,51.5,29.95,ENE,71,0.0,3.0,96,0.01,,---,0.42,VWS V14.00,2013-01-16 21:33:00,
2013-01-16 16:38:00,52.4,51.3,29.96,ENE,72,0.0,0.0,96,0.00,,---,0.42,VWS V14.00,2013-01-16 21:38:00,
2013-01-16 16:43:00,52.3,51.2,29.97,ENE,71,0.0,2.0,96,0.00,,---,0.42,VWS V14.00,2013-01-16 21:43:00,
2013-01-16 16:48:00,52.3,51.2,29.96,ENE,71,0.0,2.0,96,0.01,,---,0.43,VWS V14.00,2013-01-16 21:48:00,
2013-01-16 16:53:00,52.2,51.1,29.96,ENE,71,0.0,2.0,96,0.01,,---,0.43,VWS V14.00,2013-01-16 21:53:00,
2013-01-16 16:57:00,52.1,51.0,29.97,ENE,71,0.0,2.0,96,0.01,,---,0.43,VWS V14.00,2013-01-16 21:57:00,
2013-01-16 17:03:00,52.0,51.2,29.97,ENE,71,0.0,2.0,97,0.01,,---,0.43,VWS V14.00,2013-01-16 22:03:00,
2013-01-16 17:08:00,52.0,51.2,29.97,ENE,71,0.0,0.0,97,0.01,,---,0.43,VWS V14.00,2013-01-16 22:08:00,
2013-01-16 17:13:00,52.0,51.2,29.97,ENE,71,0.0,0.0,97,0.01,,---,0.43,VWS V14.00,2013-01-16 22:13:00,
2013-01-16 17:18:00,52.0,51.2,29.96,ENE,72,0.0,1.0,97,0.02,,---,0.44,VWS V14.00,2013-01-16 22:18:00,
2013-01-16 17:23:00,51.8,51.0,29.96,ENE,71,0.0,1.0,97,0.02,,---,0.44,VWS V14.00,2013-01-16 22:23:00,
2013-01-16 17:28:00,51.8,51.0,29.97,ENE,71,0.0,1.0,97,0.02,,---,0.44,VWS V14.00,2013-01-16 22:28:00,
2013-01-16 17:33:00,51.8,51.0,29.97,SSE,167,0.0,1.0,97,0.02,,---,0.44,VWS V14.00,2013-01-16 22:33:00,
2013-01-16 17:38:00,51.7,50.9,29.97,SSE,158,0.0,0.0,97,0.02,,---,0.44,VWS V14.00,2013-01-16 22:38:00,
2013-01-16 17:43:00,51.6,50.8,29.97,SSE,158,0.0,0.0,97,0.02,,---,0.44,VWS V14.00,2013-01-16 22:43:00,
2013-01-16 17:47:00,51.5,50.7,29.98,SSE,157,0.0,0.0,97,0.02,,---,0.44,VWS V14.00,2013-01-16 22:47:00,
2013-01-16 17:52:00,51.5,50.7,29.98,SSE,157,0.0,1.0,97,0.02,,---,0.44,VWS V14.00,2013-01-16 22:52:00,
2013-01-16 17:57:00,51.5,50.7,29.97,SSE,158,0.0,1.0,97,0.02,,---,0.44,VWS V14.00,2013-01-16 22:57:00,
2013-01-16 18:02:00,51.5,50.7,29.98,SSE,158,0.0,1.0,97,0.02,,---,0.44,VWS V14.00,2013-01-16 23:02:00,
2013-01-16 18:07:00,51.5,50.7,29.98,SSE,158,0.0,0.0,97,0.01,,---,0.44,VWS V14.00,2013-01-16 23:07:00,
2013-01-16 18:12:00,51.5,50.7,29.98,SSE,157,0.0,0.0,97,0.01,,---,0.44,VWS V14.00,2013-01-16 23:12:00,
2013-01-16 18:17:00,51.5,50.7,29.98,SSE,158,0.0,0.0,97,0.01,,---,0.44,VWS V14.00,2013-01-16 23:17:00,
2013-01-16 18:22:00,51.5,50.7,29.98,SSE,158,0.0,0.0,97,0.01,,---,0.44,VWS V14.00,2013-01-16 23:22:00,
2013-01-16 18:27:00,51.5,50.7,29.97,SSE,158,0.0,0.0,97,0.01,,---,0.44,VWS V14.00,2013-01-16 23:27:00,
2013-01-16 18:32:00,51.4,50.6,29.98,SSE,158,0.0,0.0,97,0.01,,---,0.44,VWS V14.00,2013-01-16 23:32:00,
2013-01-16 18:37:00,51.5,50.7,29.98,SSE,158,0.0,0.0,97,0.00,,---,0.44,VWS V14.00,2013-01-16 23:37:00,
2013-01-16 18:42:00,51.4,50.6,29.97,SSE,158,0.0,0.0,97,0.00,,---,0.44,VWS V14.00,2013-01-16 23:42:00,
2013-01-16 18:47:00,51.4,50.6,29.97,SSE,157,0.0,0.0,97,0.00,,---,0.44,VWS V14.00,2013-01-16 23:47:00,
2013-01-16 18:52:00,51.3,50.5,29.97,SSE,158,0.0,0.0,97,0.00,,---,0.44,VWS V14.00,2013-01-16 23:52:00,
2013-01-16 18:57:00,51.3,50.5,29.98,SSE,158,0.0,0.0,97,0.00,,---,0.44,VWS V14.00,2013-01-16 23:57:00,
2013-01-16 19:02:00,51.3,50.5,29.99,SSE,158,0.0,0.0,97,0.00,,---,0.44,VWS V14.00,2013-01-17 00:02:00,
2013-01-16 19:07:00,51.3,50.5,30.01,SSE,157,0.0,0.0,97,0.00,,---,0.44,VWS V14.00,2013-01-17 00:07:00,
2013-01-16 19:12:00,51.2,50.4,30.01,SSE,158,0.0,0.0,97,0.00,,---,0.44,VWS V14.00,2013-01-17 00:12:00,
2013-01-16 19:17:00,51.3,50.5,30.01,SSE,158,0.0,0.0,97,0.00,,---,0.44,VWS V14.00,2013-01-17 00:17:00,
2013-01-16 19:22:00,51.3,50.8,30.00,SSE,158,0.0,0.0,98,0.00,,---,0.44,VWS V14.00,2013-01-17 00:22:00,
2013-01-16 19:27:00,51.3,50.8,30.00,SSE,157,0.0,0.0,98,0.00,,---,0.44,VWS V14.00,2013-01-17 00:27:00,
2013-01-16 19:32:00,51.4,50.9,30.00,SSE,157,0.0,1.0,98,0.00,,---,0.44,VWS V14.00,2013-01-17 00:32:00,
2013-01-16 19:37:00,51.3,50.8,30.00,SSE,157,0.0,0.0,98,0.00,,---,0.44,VWS V14.00,2013-01-17 00:37:00,
2013-01-16 19:42:00,51.3,50.8,29.99,SSE,158,0.0,0.0,98,0.00,,---,0.44,VWS V14.00,2013-01-17 00:42:00,
2013-01-16 19:47:00,51.2,50.7,30.00,SSE,158,0.0,0.0,98,0.00,,---,0.44,VWS V14.00,2013-01-17 00:47:00,
2013-01-16 19:52:00,51.2,50.7,29.99,SSE,157,0.0,0.0,98,0.00,,---,0.44,VWS V14.00,2013-01-17 00:52:00,
2013-01-16 19:57:00,51.1,50.6,29.99,SSE,158,0.0,0.0,98,0.00,,---,0.44,VWS V14.00,2013-01-17 00:57:00,
2013-01-16 20:02:00,51.1,50.6,30.00,SSE,158,0.0,0.0,98,0.00,,---,0.44,VWS V14.00,2013-01-17 01:02:00,
2013-01-16 20:07:00,51.1,50.6,30.00,SSE,158,0.0,0.0,98,0.00,,---,0.44,VWS V14.00,2013-01-17 01:07:00,
2013-01-16 20:12:00,51.1,50.6,30.01,SSE,158,0.0,0.0,98,0.00,,---,0.44,VWS V14.00,2013-01-17 01:12:00,
2013-01-16 20:17:00,51.1,50.6,30.00,SSE,157,0.0,0.0,98,0.02,,---,0.46,VWS V14.00,2013-01-17 01:17:00,
2013-01-16 20:22:00,51.1,50.6,30.00,SSE,158,0.0,0.0,98,0.02,,---,0.46,VWS V14.00,2013-01-17 01:22:00,
2013-01-16 20:27:00,51.1,50.6,30.01,SSE,158,0.0,0.0,98,0.03,,---,0.47,VWS V14.00,2013-01-17 01:27:00,
2013-01-16 20:32:00,51.1,50.6,30.01,SSE,157,0.0,0.0,98,0.03,,---,0.47,VWS V14.00,2013-01-17 01:32:00,
2013-01-16 20:37:00,51.1,50.6,30.01,SSE,158,0.0,0.0,98,0.03,,---,0.47,VWS V14.00,2013-01-17 01:37:00,
2013-01-16 20:42:00,51.0,50.5,30.01,SSE,158,0.0,0.0,98,0.04,,---,0.48,VWS V14.00,2013-01-17 01:42:00,
2013-01-16 20:47:00,51.0,50.5,30.00,SSE,158,0.0,0.0,98,0.04,,---,0.48,VWS V14.00,2013-01-17 01:47:00,
2013-01-16 20:52:00,51.0,50.5,30.00,SSE,157,0.0,0.0,98,0.05,,---,0.49,VWS V14.00,2013-01-17 01:52:00,
2013-01-16 20:57:00,51.0,50.5,30.01,SSE,157,0.0,0.0,98,0.05,,---,0.49,VWS V14.00,2013-01-17 01:57:00,
2013-01-16 21:02:00,51.0,50.5,30.01,SSE,158,0.0,0.0,98,0.05,,---,0.49,VWS V14.00,2013-01-17 02:02:00,
2013-01-16 21:07:00,51.0,50.5,30.00,SSE,157,0.0,0.0,98,0.05,,---,0.49,VWS V14.00,2013-01-17 02:07:00,
2013-01-16 21:12:00,51.1,50.6,30.00,SSE,157,0.0,0.0,98,0.05,,---,0.49,VWS V14.00,2013-01-17 02:12:00,
2013-01-16 21:17:00,51.1,50.6,30.00,SSE,158,0.0,0.0,98,0.06,,---,0.50,VWS V14.00,2013-01-17 02:17:00,
2013-01-16 21:22:00,51.1,50.6,30.00,SSE,158,0.0,0.0,98,0.06,,---,0.50,VWS V14.00,2013-01-17 02:22:00,
2013-01-16 21:27:00,50.9,50.4,30.00,SSE,157,0.0,0.0,98,0.06,,---,0.50,VWS V14.00,2013-01-17 02:27:00,
2013-01-16 21:32:00,50.8,50.3,30.00,SSE,157,0.0,0.0,98,0.06,,---,0.50,VWS V14.00,2013-01-17 02:32:00,
2013-01-16 21:37:00,50.8,50.3,29.99,SSE,158,0.0,0.0,98,0.03,,---,0.50,VWS V14.00,2013-01-17 02:37:00,
2013-01-16 21:42:00,50.7,50.2,30.00,SSE,158,0.0,0.0,98,0.04,,---,0.51,VWS V14.00,2013-01-17 02:42:00,
2013-01-16 21:47:00,50.6,50.1,30.00,SSE,158,0.0,0.0,98,0.04,,---,0.51,VWS V14.00,2013-01-17 02:47:00,
2013-01-16 21:52:00,50.6,50.1,30.00,SSE,157,0.0,0.0,98,0.04,,---,0.51,VWS V14.00,2013-01-17 02:52:00,
2013-01-16 21:57:00,50.6,50.1,30.01,SSE,157,0.0,0.0,98,0.05,,---,0.52,VWS V14.00,2013-01-17 02:57:00,
2013-01-16 22:02:00,50.6,50.1,30.00,SSE,158,0.0,0.0,98,0.05,,---,0.52,VWS V14.00,2013-01-17 03:02:00,
2013-01-16 22:07:00,50.6,50.1,29.99,SSE,158,0.0,0.0,98,0.03,,---,0.52,VWS V14.00,2013-01-17 03:07:00,
2013-01-16 22:12:00,50.6,50.1,30.00,SSE,158,0.0,0.0,98,0.03,,---,0.52,VWS V14.00,2013-01-17 03:12:00,
2013-01-16 22:17:00,50.6,50.1,29.99,SSE,158,0.0,0.0,98,0.03,,---,0.52,VWS V14.00,2013-01-17 03:17:00,
2013-01-16 22:22:00,50.6,50.1,29.99,SSE,158,0.0,0.0,98,0.03,,---,0.52,VWS V14.00,2013-01-17 03:22:00,
2013-01-16 22:27:00,50.6,50.1,29.98,SSE,158,0.0,0.0,98,0.03,,---,0.52,VWS V14.00,2013-01-17 03:27:00,
2013-01-16 22:32:00,50.7,50.4,29.98,NNW,346,0.0,5.0,99,0.03,,---,0.52,VWS V14.00,2013-01-17 03:32:00,
2013-01-16 22:37:00,50.8,50.5,29.99,West,275,0.0,2.0,99,0.03,,---,0.53,VWS V14.00,2013-01-17 03:37:00,
2013-01-16 22:42:00,50.8,50.5,29.99,West,275,0.0,2.0,99,0.03,,---,0.53,VWS V14.00,2013-01-17 03:42:00,
2013-01-16 22:47:00,50.7,50.4,29.99,West,275,0.0,2.0,99,0.03,,---,0.53,VWS V14.00,2013-01-17 03:47:00,
2013-01-16 22:52:00,50.7,50.4,29.98,West,275,0.0,2.0,99,0.03,,---,0.53,VWS V14.00,2013-01-17 03:52:00,
2013-01-16 22:57:00,50.7,50.4,29.98,West,275,0.0,2.0,99,0.03,,---,0.53,VWS V14.00,2013-01-17 03:57:00,
2013-01-16 23:02:00,50.6,50.3,29.96,West,275,0.0,2.0,99,0.03,,---,0.53,VWS V14.00,2013-01-17 04:02:00,
2013-01-16 23:07:00,50.5,50.0,29.97,West,275,1.0,1.0,98,0.01,,---,0.53,VWS V14.00,2013-01-17 04:07:00,
2013-01-16 23:12:00,50.5,50.0,29.97,West,275,0.0,1.0,98,0.01,,---,0.53,VWS V14.00,2013-01-17 04:12:00,
2013-01-16 23:17:00,50.5,50.0,29.97,West,275,0.0,1.0,98,0.01,,---,0.53,VWS V14.00,2013-01-17 04:17:00,
2013-01-16 23:22:00,50.4,49.9,29.97,West,275,0.0,1.0,98,0.01,,---,0.53,VWS V14.00,2013-01-17 04:22:00,
2013-01-16 23:27:00,50.4,49.9,29.97,West,275,0.0,1.0,98,0.01,,---,0.53,VWS V14.00,2013-01-17 04:27:00,
2013-01-16 23:32:00,50.3,49.8,29.96,West,275,0.0,1.0,98,0.01,,---,0.53,VWS V14.00,2013-01-17 04:32:00,
2013-01-16 23:37:00,50.2,49.7,29.96,NE,35,0.0,2.0,98,0.01,,---,0.53,VWS V14.00,2013-01-17 04:37:00,
2013-01-16 23:42:00,50.1,49.6,29.95,NE,34,0.0,2.0,98,0.01,,---,0.53,VWS V14.00,2013-01-17 04:42:00,
2013-01-16 23:47:00,49.9,49.4,29.96,NE,35,0.0,2.0,98,0.01,,---,0.53,VWS V14.00,2013-01-17 04:47:00,
2013-01-16 23:52:00,49.8,49.3,29.96,NE,35,0.0,2.0,98,0.01,,---,0.53,VWS V14.00,2013-01-17 04:52:00,
2013-01-16 23:57:00,49.8,49.3,29.97,NE,34,0.0,2.0,98,0.01,,---,0.53,VWS V14.00,2013-01-17 04:57:00,